SES-17

Last updated on Mon Feb 16 2026 00:02:51 GMT+0000 (Coordinated Universal Time)

1 49332U 21095A 26046.09928635 -.00000267 00000+0 00000+0 0 9992 2 49332 0.0192 62.7669 0000869 270.8931 140.0657 1.00269446 16635
UTC large
Height (km)
Speed (km/s)
/
Latitude / Longitude
Inclination (degrees)
Orbital Period (minutes)
Azimuth
Elevation
Range (km)
Doppler Factor

Next 0 passes for location: London (51.5072 / 0.1276)

Sorry there are no passes over London.